Location: Spruce Knob
(38.6995°N, 79.5330°W)
Time: 11:19:14
(UTC-04:00)

NOAA 19 - Visible Passes

Search period start: 21 March 2023 00:00
Search period end: 31 March 2023 00:00
Orbit: 839 x 861 km, 99.1° (Epoch: 21 March)

Date Brightness Start Highest point End Pass type
(mag) Time Alt. Az. Time Alt. Az. Time Alt. Az.
21 Mar 6.3 20:05:04 10° ESE 20:09:25 25° ENE 20:13:47 10° NNE visible
21 Mar 6.3 21:45:26 14° SSW 21:49:47 42° W 21:54:59 10° NNW visible
22 Mar 6.6 19:53:43 10° ESE 19:57:33 20° ENE 20:01:22 10° NNE visible
22 Mar 5.8 21:33:13 15° S 21:37:44 55° W 21:43:07 10° NNW visible
23 Mar 5.4 21:21:00 14° S 21:25:42 71° WSW 21:31:11 10° NNW visible
24 Mar 5.1 21:08:47 13° SSE 21:13:41 89° ENE 21:19:12 10° NNW visible
24 Mar 8.1 22:54:31 10° W 22:54:59 10° W 22:55:26 10° W visible
25 Mar 5.1 20:56:34 12° SSE 21:01:42 70° ENE 21:07:09 10° N visible
25 Mar 7.8 22:40:04 10° WSW 22:42:48 14° W 22:45:33 10° WNW visible
26 Mar 5.3 20:44:24 10° SSE 20:49:44 54° ENE 20:55:03 10° N visible
26 Mar 7.5 22:26:58 10° SW 22:30:40 18° W 22:34:22 10° NW visible
27 Mar 5.6 20:32:39 10° SE 20:37:46 42° ENE 20:42:54 10° N visible
27 Mar 7.2 22:14:13 10° SSW 22:18:32 24° W 22:22:53 10° NW visible
28 Mar 5.9 20:21:00 10° SE 20:25:51 33° ENE 20:30:41 10° N visible
28 Mar 6.8 22:01:54 11° SSW 22:06:26 30° W 22:11:13 10° NW visible
29 Mar 6.2 20:09:28 10° ESE 20:13:56 26° ENE 20:18:25 10° N visible
29 Mar 6.4 21:49:40 12° SSW 21:54:21 39° W 21:59:28 10° NNW visible
30 Mar 5.9 21:37:27 12° S 21:42:17 51° W 21:47:37 10° NNW visible
